Location: Rumah Geringgi
(3.1667°N, 113.1667°E)
Time: 20:58:34
(UTC+00:00)

CZ-3 R/B - Pass Details

Date: 03 August 2024
Orbit: 504 x 10059 km, 28.3° (Epoch: 19 September)

Event Time Altitude Azimuth Distance (km) Brightness Sun altitude
Exits shadow 20:47:47 18° 220° (SW) 6,881 5.3 -24.1°
Maximum altitude 21:01:28 34° 170° (S) 3,222 4.0 -20.9°
Drops below altitude 10° 21:08:55 10° 106° (ESE) 3,172 4.9 -19.1°
Sets 21:11:03 0° 95° (E) 3,694 5.7 -18.6°
